Location: Daytona Beach
(29.2106°N, 81.0231°W)
Time: 00:01:24
(UTC-04:00)

X-37B - Pass Details

Date: 22 June 2021
Orbit: 383 x 392 km, 45.0° (Epoch: 01 July)

Event Time Altitude Azimuth Distance (km) Brightness Sun altitude
Exits shadow 03:52:36 - 335° (NNW) 1,769 4.2 -26.7°
Reaches altitude 10° 03:53:58 10° 352° (N) 1,402 3.9 -26.5°
Maximum altitude 03:55:41 14° 25° (NNE) 1,203 3.9 -26.2°
Drops below altitude 10° 03:57:24 10° 58° (ENE) 1,403 4.3 -26.0°
Sets 04:00:14 0° 86° (E) 2,256 5.1 -25.6°
